Newberry Springs, CA

5:54 AM PST on February 26, 2017 (GMT -0800)
Barstow-Daggett

Weather History for KDAG - April, 2013

Change the Weather History Date:

Thursday, April 25, 2013

  Actual Average Record
Temperature  
Mean Temperature 70 °F 68 °F  
Max Temperature 86 °F 82 °F 96 °F (1987)
Min Temperature 54 °F 53 °F 40 °F (1989)
Degree Days  
Heating Degree Days 0    
Cooling Degree Days 5    
Growing Degree Days 20 (Base 50)    
Moisture  
Dew Point 37 °F    
Average Humidity 36    
Maximum Humidity 66    
Minimum Humidity 8    
Precipitation  
Precipitation 0.00 in 0.00 in 0.09 in (1951)
Month to date precipitation 0.15  
Year to date precipitation 1.91  
Sea Level Pressure  
Sea Level Pressure 29.87 in    
Wind  
Wind Speed 14 mph (West)    
Max Wind Speed 24 mph    
Max Gust Speed 26 mph    
Visibility 10 miles    
Events      
T = Trace of Precipitation, MM = Missing Value Source: NWS Daily Summary

Daily Weather History Graph

Daily Weather History Graph

Search for Another Location

Airport or City:

Trip Planner

Search our weather history database for the weather conditions in past years. The results will help you decide how hot, cold, wet, or windy it might be!

Date:

Astronomy

Apr. 25, 2013 Rise Set
Actual Time 6:02 AM PDT 7:27 PM PDT
Civil Twilight 5:36 AM PDT 7:54 PM PDT
Nautical Twilight 5:04 AM PDT 8:26 PM PDT
Astronomical Twilight 4:31 AM PDT 8:59 PM PDT
Moon 7:44 PM PDT (4/25) 5:48 AM PDT (4/25)
Length of Visible Light 14h 18m
Length of Day
13h 25m
Full, 100% of the Moon is Illuminated
Apr 25
Full
Apr 25
Full
May 2
Last Quarter
May 9
New
May 17
First Quarter

Hourly Weather History & Observations

Time (PDT) Temp. Dew Point Humidity Pressure Visibility Wind Dir Wind Speed Gust Speed Precip Events Conditions
12:50 AM 61.0 °F 44.1 °F 54% 29.81 in 10.0 mi WNW 17.3 mph - N/A   Clear
1:50 AM 57.9 °F 44.1 °F 60% 29.81 in 10.0 mi WNW 9.2 mph - N/A   Clear
2:50 AM 57.0 °F 45.0 °F 64% 29.80 in 10.0 mi West 12.7 mph - N/A   Clear
3:50 AM 55.9 °F 44.1 °F 64% 29.80 in 10.0 mi West 11.5 mph - N/A   Clear
4:50 AM 55.0 °F 43.0 °F 64% 29.81 in 10.0 mi WNW 15.0 mph - N/A   Clear
5:50 AM 54.0 °F 43.0 °F 66% 29.83 in 10.0 mi West 11.5 mph - N/A   Clear
6:50 AM 54.0 °F 42.1 °F 64% 29.86 in 10.0 mi West 13.8 mph - N/A   Clear
7:50 AM 59.0 °F 42.1 °F 53% 29.88 in 10.0 mi West 16.1 mph - N/A   Clear
8:50 AM 63.0 °F 42.1 °F 46% 29.90 in 10.0 mi WNW 13.8 mph - N/A   Clear
9:50 AM 66.9 °F 43.0 °F 42% 29.91 in 10.0 mi WNW 13.8 mph - N/A   Clear
10:50 AM 72.0 °F 41.0 °F 33% 29.91 in 10.0 mi WNW 17.3 mph 23.0 mph N/A   Clear
11:50 AM 75.0 °F 39.9 °F 28% 29.90 in 10.0 mi WNW 13.8 mph - N/A   Clear
12:50 PM 79.0 °F 37.0 °F 22% 29.88 in 10.0 mi West 11.5 mph - N/A   Clear
1:50 PM 82.0 °F 28.9 °F 14% 29.87 in 10.0 mi West 10.4 mph 16.1 mph N/A   Clear
2:50 PM 82.9 °F 26.1 °F 13% 29.85 in 10.0 mi NW 6.9 mph - N/A   Clear
3:50 PM 84.9 °F 21.9 °F 10% 29.83 in 10.0 mi West 11.5 mph 20.7 mph N/A   Clear
4:50 PM 86.0 °F 19.0 °F 8% 29.82 in 10.0 mi West 15.0 mph 21.9 mph N/A   Clear
5:50 PM 84.0 °F 21.0 °F 10% 29.83 in 10.0 mi WNW 10.4 mph - N/A   Clear
6:50 PM 81.0 °F 30.9 °F 16% 29.84 in 10.0 mi West 24.2 mph - N/A   Clear
7:50 PM 77.0 °F 37.0 °F 24% 29.87 in 10.0 mi West 21.9 mph 26.5 mph N/A   Clear
8:50 PM 73.9 °F 37.9 °F 27% 29.91 in 10.0 mi WSW 20.7 mph - N/A   Clear
9:50 PM 72.0 °F 36.0 °F 27% 29.94 in 10.0 mi SW 18.4 mph - N/A   Clear
10:50 PM 70.0 °F 35.1 °F 28% 29.95 in 10.0 mi West 13.8 mph 20.7 mph N/A   Clear
11:50 PM 69.1 °F 34.0 °F 27% 29.96 in 10.0 mi WSW 17.3 mph 25.3 mph N/A   Clear